[[[{"header":{"parameterUnit":"kt","parameterCategory":2,"dx":1,"dy":1,"la1":30.253999710083008,"la2":30.299108505249023,"lo1":-89.0895004272461,"lo2":-89.04439544677734,"nx":28,"ny":28,"refTime":"2022-10-21T21:00:00:Z","depth":0,"parameterNumber":1,"parameterNumberName":"U-component_of_WINDS"},"data":[-6.7796,-6.7868,-6.788,-6.7968,-6.7993,-6.8056,-6.8081,-6.8116,-6.8147,-6.8223,-6.8269,-6.8289,-6.8323,-6.8381,-6.8432,-6.8439,-6.8458,-6.8477,-6.8482,-6.8388,-6.8376,-6.8364,-6.8346,-6.8482,-6.8482,-6.8575,-6.8576,-6.8577,-6.7731,-6.7757,-6.7807,-6.7862,-6.7905,-6.7895,-6.7939,-6.7975,-6.8031,-6.8069,-6.8114,-6.8182,-6.8237,-6.8265,-6.832,-6.8355,-6.8351,-6.8369,-6.8364,-6.8369,-6.8271,-6.8252,-6.837,-6.837,-6.837,-6.837,-6.837,-6.837,-6.7616,-6.7659,-6.7698,-6.7752,-6.7783,-6.782,-6.7863,-6.7884,-6.7933,-6.799,-6.7994,-6.8057,-6.8096,-6.8166,-6.8192,-6.8242,-6.8224,-6.8245,-6.825,-6.8254,-6.8258,-6.8121,-6.8252,-6.8252,-6.8251,-6.8251,-6.8251,0,-6.7533,-6.754,-6.7587,-6.7638,-6.7678,-6.7719,-6.7757,-6.7784,-6.7799,-6.7839,-6.7896,-6.7931,-6.8001,-6.8056,-6.8109,-6.8131,-6.812,-6.8121,-6.8135,-6.8132,-6.8125,-6.8128,-6.7965,-6.8116,-6.8115,-6.8114,-6.8113,-6.8113,-6.7416,-6.7464,-6.751,-6.7542,-6.7565,-6.7616,-6.7649,-6.7658,-6.7692,-6.7741,-6.7778,-6.7834,-6.7878,-6.7969,-6.7991,-6.8043,-6.8037,-6.8094,-6.8044,-6.8042,-6.8035,-6.8031,-6.8036,-6.8101,-6.8102,-6.8104,-6.8105,0,-6.7348,-6.7364,-6.7442,-6.7481,-6.7492,-6.7543,-6.7576,-6.7619,-6.7634,-6.7695,-6.771,-6.7732,-6.7788,-6.78,-6.7867,-6.7871,-6.7956,-6.7951,-6.7943,-6.7941,-6.7992,-6.7986,-6.8156,-6.8178,-6.804,-6.8042,-6.8043,0,-6.7252,-6.7315,-6.7334,-6.7378,-6.745,-6.7455,-6.7525,-6.7544,-6.7576,-6.7624,-6.7615,-6.766,-6.7668,-6.7716,-6.7723,-6.7794,-6.7807,-6.7814,-6.7814,-6.7813,-6.7811,-6.7827,-6.7819,-6.7815,-6.7814,-6.7814,-6.7813,0,-6.7142,-6.7226,-6.7298,-6.7319,-6.7365,-6.74,-6.742,-6.7455,-6.7486,-6.7529,-6.7549,-6.7599,-6.7625,-6.7664,-6.7671,-6.7638,-6.776,-6.7714,-6.7766,-6.7766,-6.7788,-6.7786,-6.7938,-6.7812,-6.7812,-6.7811,-6.7811,0,-6.7064,-6.7107,-6.721,-6.7248,-6.7269,-6.7317,-6.7365,-6.7408,-6.7446,-6.7452,-6.7486,-6.7478,-6.7542,-6.7497,-6.7584,-6.7538,-6.7565,-6.7577,-6.7581,-6.7583,-6.753,-6.7611,-6.7757,-6.7771,-6.7593,-6.7591,-6.7589,0,-6.6934,-6.7041,-6.7044,-6.7142,-6.7192,-6.7176,-6.723,-6.7262,-6.7275,-6.732,-6.7335,-6.7385,-6.7353,-6.737,-6.7413,-6.7428,-6.7489,-6.7421,-6.7484,-6.7486,-6.7471,-6.7607,-6.7623,-6.7724,-6.7566,-6.7569,-6.757,0,-6.6833,-6.6886,-6.6903,-6.6926,-6.6968,-6.7009,-6.7072,-6.7122,-6.7151,-6.7188,-6.7239,-6.7311,-6.7289,-6.7317,-6.7315,-6.7359,-6.7448,-6.7328,-6.7329,-6.7348,-6.7556,-6.7571,-6.7588,-6.7438,-6.7441,-6.7443,-6.7552,0,-6.6709,-6.6763,-6.681,-6.686,-6.6894,-6.6955,-6.6964,-6.6999,-6.6993,-6.7004,-6.7079,-6.7106,-6.7156,-6.7178,-6.7172,-6.7268,-6.7253,-6.7228,-6.718,-6.727,-6.7306,-6.7321,-6.7126,-6.7125,-6.7124,-6.7123,0,0,-6.6579,-6.6655,-6.6655,-6.6713,-6.6741,-6.672,-6.6784,-6.6809,-6.6859,-6.6878,-6.6853,-6.6956,-6.6978,-6.7068,-6.7097,-6.7117,-6.7135,-6.7101,-6.7228,-6.7239,-6.725,-6.7288,-6.7304,-6.7121,-6.7121,-6.712,-6.712,0,-6.6534,-6.6558,-6.6621,-6.6646,-6.6683,-6.6691,-6.6706,-6.6738,-6.6747,-6.682,-6.68,-6.6846,-6.6927,-6.6953,-6.6976,-6.7093,-6.7073,-6.7108,-6.7167,-6.7216,-6.7229,-6.7241,-6.7281,-6.7296,-6.7117,-6.7117,-6.7117,0,-6.6434,-6.6458,-6.6489,-6.655,-6.6573,-6.6625,-6.6578,-6.6633,-6.6671,-6.6642,-6.6714,-6.6729,-6.6764,-6.6848,-6.6885,-6.6862,-6.7016,-6.6968,-6.6976,-6.6979,-6.7026,-6.7042,-6.7056,-6.687,-6.6869,-6.6868,0,0,-6.6393,-6.6443,-6.6468,-6.654,-6.6557,-6.6567,-6.6595,-6.659,-6.6622,-6.6634,-6.6652,-6.6683,-6.673,-6.6761,-6.6805,-6.6896,-6.6902,-6.6938,-6.6949,-6.6959,-6.6967,-6.7017,-6.7033,-6.6865,-6.6865,-6.6864,0,0,-6.6373,-6.6405,-6.6393,-6.6478,-6.6509,-6.6537,-6.6581,-6.6567,-6.6607,-6.66,-6.6594,-6.6602,-6.668,-6.6695,-6.6649,-6.6787,-6.674,-6.6751,-6.6773,-6.6788,-6.68,-6.6793,-6.6601,0,0,0,0,0,-6.6329,-6.6401,-6.639,-6.6405,-6.648,-6.6544,-6.6554,-6.655,-6.6518,-6.6553,-6.6566,-6.6542,-6.667,-6.6629,-6.6644,-6.6693,-6.6821,-6.6829,-6.6836,-6.6887,-6.6902,-6.6915,0,0,0,0,0,0,-6.6335,-6.6353,-6.6388,-6.6419,-6.6436,-6.6541,-6.6485,-6.6486,-6.6514,-6.6508,-6.6541,-6.6543,-6.6541,-6.6621,-6.6635,-6.6681,-6.6597,-6.6824,-6.6831,-6.6836,-6.6892,-6.6904,-6.6915,0,0,0,0,0,-6.6339,-6.6354,-6.6476,-6.6418,-6.6433,-6.6447,-6.6482,-6.6482,-6.6504,-6.6522,-6.6524,-6.6499,-6.6543,-6.6554,-6.6629,-6.6675,-6.6587,-6.6592,-6.6828,-6.6833,-6.6838,-6.6898,0,0,0,0,0,0,-6.6343,-6.6355,-6.6478,-6.6483,-6.639,-6.6441,-6.6448,-6.6479,-6.6515,-6.6518,-6.6479,-6.6474,-6.6545,-6.6553,-6.6562,-6.6673,-6.658,-6.6585,-6.6588,-6.6832,-6.6836,-6.684,0,0,0,0,0,0,-6.6347,-6.6359,-6.6481,-6.6445,-6.6445,-6.6435,-6.6442,-6.6505,-6.6516,-6.647,-6.6467,-6.6477,-6.6531,-6.6553,-6.6559,-6.6657,-6.6574,-6.6579,-6.6582,-6.6584,-6.6836,-6.6839,0,0,0,0,0,0,-6.6352,-6.6362,-6.6443,-6.6444,-6.6444,-6.6492,-6.649,-6.6567,-6.6486,-6.6469,-6.6478,-6.6475,-6.6532,-6.6538,-6.6558,-6.6653,-6.6656,-6.6574,-6.6577,-6.658,-6.6581,0,0,0,0,0,0,0,-6.6356,-6.6288,-6.6453,-6.6443,-6.6443,-6.6523,-6.6524,-6.6525,-6.6485,-6.6482,-6.6479,-6.6477,-6.6546,-6.6551,-6.6557,-6.665,0,0,-6.6574,-6.6576,0,0,0,0,0,0,0,0,-6.6284,-6.6287,-6.6453,-6.6454,-6.6455,-6.6523,-6.6524,-6.6525,-6.6485,-6.6482,-6.648,-6.6478,-6.6547,-6.6552,-6.6556,0,0,0,0,0,0,0,0,0,0,0,0,0,0,0,-6.6453,-6.6454,0,-6.6523,-6.6524,-6.6525,-6.6484,-6.6482,-6.648,-6.6479,-6.6548,-6.6552,-6.6556,0,0,0,0,0,0,0,0,0,0,0,0,0,0,0,0,0,0,0,0,0,0,0,0,0,0,0,0,0,0,0,0,0,0,0,0,0,0,0,0,0,0,0,0,0,0,0,0,0,0,0,0,0,0,0,0,0,0,0,0,0,0,0,0,0,0,0,0,0]}],[{"header":{"parameterUnit":"kt","parameterCategory":2,"dx":1,"dy":1,"la1":30.253999710083008,"la2":30.299108505249023,"lo1":-89.0895004272461,"lo2":-89.04439544677734,"nx":28,"ny":28,"refTime":"2022-10-21T21:00:00:Z","depth":0,"parameterNumber":2,"parameterNumberName":"V-component_of_WINDS"},"data":[6.9835,6.9807,6.9813,6.9783,6.9783,6.9763,6.9757,6.9749,6.9745,6.9719,6.9704,6.9705,6.97,6.9681,6.9664,6.9664,6.9656,6.9642,6.9644,6.9702,6.971,6.9718,6.9727,6.9641,6.9641,6.9584,6.9583,6.9583,6.9879,6.988,6.9866,6.9856,6.9844,6.9861,6.9853,6.9841,6.9821,6.9814,6.98,6.9776,6.9757,6.9756,6.9737,6.9721,6.9727,6.9716,6.9716,6.9715,6.9778,6.9786,6.9712,6.9712,6.9712,6.9712,6.9712,6.9712,6.9962,6.9944,6.9942,6.9927,6.9923,6.9916,6.9899,6.9902,6.9886,6.9869,6.9877,6.9853,6.9845,6.9824,6.9817,6.9797,6.9809,6.9797,6.9794,6.9791,6.9788,6.987,6.9793,6.9793,6.9794,6.9794,6.9794,0,7.0024,7.003,7.0017,7.0005,6.9994,6.9984,6.9976,6.9966,6.9978,6.9964,6.9943,6.9932,6.9908,6.9887,6.9869,6.9864,6.9876,6.9878,6.987,6.9866,6.9866,6.9866,6.9967,6.9879,6.988,6.9881,6.9881,6.9881,7.0107,7.0085,7.0086,7.0075,7.0073,7.0055,7.0045,7.0058,7.0046,7.0036,7.0018,6.9998,6.9982,6.9945,6.9944,6.9924,6.993,6.9896,6.9926,6.9925,6.9929,6.993,6.9928,6.9889,6.9888,6.9887,6.9887,0,7.0153,7.0163,7.0131,7.0133,7.0132,7.0108,7.0108,7.0089,7.0093,7.0067,7.0061,7.0065,7.0043,7.0047,7.0021,7.0024,6.998,6.9986,6.9984,6.9985,6.9956,6.9958,6.9858,6.9845,6.9935,6.9934,6.9933,0,7.0228,7.0198,7.0215,7.0196,7.0163,7.0177,7.0144,7.0143,7.0138,7.0117,7.0134,7.0114,7.0123,7.0103,7.0106,7.0072,7.0066,7.0066,7.0067,7.0064,7.0064,7.0055,7.0059,7.007,7.0071,7.0071,7.0072,0,7.03,7.0273,7.0242,7.0237,7.0234,7.0219,7.0216,7.021,7.0198,7.0185,7.0177,7.0159,7.0148,7.0133,7.0138,7.0158,7.0095,7.0124,7.0095,7.0094,7.0079,7.008,6.9991,7.0072,7.0072,7.0073,7.0073,0,7.0361,7.035,7.0303,7.0302,7.0294,7.0272,7.0258,7.024,7.0231,7.0233,7.0222,7.0233,7.0203,7.0232,7.019,7.0216,7.0204,7.0201,7.0199,7.0195,7.0227,7.0176,7.0092,7.0084,7.0194,7.0195,7.0196,0,7.044,7.0396,7.0408,7.0362,7.0343,7.0365,7.0341,7.0333,7.0334,7.0315,7.0314,7.0291,7.0314,7.0307,7.0286,7.0284,7.025,7.0288,7.0257,7.0256,7.026,7.0183,7.0169,7.0111,7.0209,7.0207,7.0207,0,7.0503,7.0502,7.0492,7.0488,7.0481,7.0463,7.0435,7.0417,7.0405,7.0392,7.0368,7.0335,7.0351,7.0339,7.0345,7.0323,7.0273,7.0342,7.0341,7.0329,7.0215,7.0203,7.0193,7.0282,7.028,7.0279,7.0217,0,7.0594,7.0573,7.0549,7.0537,7.0524,7.0495,7.0503,7.0489,7.0498,7.0499,7.0462,7.0454,7.0431,7.0421,7.0428,7.0376,7.0385,7.0401,7.0428,7.0377,7.0357,7.0349,7.0458,7.0459,7.046,7.046,0,0,7.0667,7.0637,7.0651,7.0625,7.0616,7.0639,7.0607,7.0599,7.0582,7.0574,7.059,7.0542,7.0533,7.0487,7.0472,7.0463,7.0453,7.047,7.0401,7.0395,7.0389,7.0367,7.0358,7.0461,7.0462,7.0462,7.0462,0,7.0703,7.0699,7.0669,7.0663,7.0655,7.0658,7.0651,7.0645,7.0644,7.0608,7.0625,7.0603,7.0562,7.0552,7.0541,7.0477,7.0488,7.0469,7.0434,7.0408,7.0401,7.0394,7.0371,7.0363,7.0464,7.0464,7.0464,0,7.0766,7.0764,7.075,7.073,7.0724,7.0701,7.0734,7.0708,7.0691,7.0712,7.0676,7.0671,7.0656,7.0612,7.0592,7.0605,7.052,7.0547,7.0543,7.054,7.0515,7.0506,7.0498,7.0603,7.0604,7.0604,0,0,7.0795,7.0775,7.0775,7.0738,7.0733,7.0738,7.0726,7.0733,7.0722,7.0717,7.0711,7.0698,7.0675,7.0659,7.0637,7.0587,7.0584,7.0564,7.0557,7.0552,7.0546,7.052,7.0511,7.0606,7.0606,7.0606,0,0,7.0807,7.0808,7.082,7.0778,7.0769,7.0764,7.074,7.0753,7.0735,7.0739,7.0746,7.0743,7.0701,7.0695,7.0719,7.0646,7.0673,7.0667,7.0652,7.0643,7.0637,7.0639,7.0747,0,0,0,0,0,7.0848,7.0808,7.0819,7.0814,7.0786,7.0759,7.0755,7.0763,7.0783,7.0764,7.0761,7.0775,7.071,7.0732,7.0724,7.0696,7.063,7.0625,7.0621,7.059,7.0582,7.0574,0,0,0,0,0,0,7.0845,7.0838,7.082,7.0814,7.0808,7.076,7.0796,7.0797,7.0785,7.0789,7.0775,7.0774,7.0778,7.0736,7.0729,7.0702,7.075,7.0628,7.0624,7.0621,7.0587,7.058,7.0574,0,0,0,0,0,7.0844,7.0838,7.0793,7.0815,7.0809,7.0811,7.0797,7.0799,7.0789,7.0784,7.0784,7.0797,7.0777,7.0771,7.0732,7.0706,7.0755,7.0752,7.0626,7.0623,7.062,7.0584,0,0,0,0,0,0,7.0843,7.0838,7.0792,7.079,7.0831,7.0814,7.0812,7.08,7.0786,7.0785,7.0806,7.0809,7.0776,7.0772,7.0767,7.0706,7.0759,7.0756,7.0754,7.0623,7.0621,7.0619,0,0,0,0,0,0,7.0841,7.0836,7.0791,7.0811,7.0812,7.0816,7.0815,7.0781,7.0785,7.0808,7.0811,7.0808,7.0781,7.0772,7.0768,7.0715,7.0762,7.0759,7.0757,7.0756,7.0622,7.062,0,0,0,0,0,0,7.0839,7.0835,7.0811,7.0812,7.0813,7.0797,7.0787,7.0757,7.0806,7.0808,7.081,7.0812,7.078,7.0777,7.0769,7.0717,7.0716,7.0762,7.076,7.0759,7.0758,0,0,0,0,0,0,0,7.0838,7.0862,7.0801,7.0813,7.0813,7.0777,7.0777,7.0776,7.0806,7.0808,7.0809,7.0811,7.0777,7.0774,7.0771,7.0719,0,0,7.0762,7.0761,0,0,0,0,0,0,0,0,7.0864,7.0862,7.0801,7.08,7.08,7.0777,7.0777,7.0777,7.0806,7.0808,7.0809,7.081,7.0776,7.0774,7.0771,0,0,0,0,0,0,0,0,0,0,0,0,0,0,0,7.0801,7.08,0,7.0777,7.0777,7.0777,7.0807,7.0808,7.0809,7.081,7.0775,7.0773,7.0772,0,0,0,0,0,0,0,0,0,0,0,0,0,0,0,0,0,0,0,0,0,0,0,0,0,0,0,0,0,0,0,0,0,0,0,0,0,0,0,0,0,0,0,0,0,0,0,0,0,0,0,0,0,0,0,0,0,0,0,0,0,0,0,0,0,0,0,0,0]}]]]